Regional Weather Roundup
Issued by NWS

Home | Current Version | Previous Version | Text Only | Print | Product List | Glossary On
Versions: 1 2 3 4 5 6 7 8 9 10 11 12 13 14 15 16 17 18 19 20 21 22 23 24 25 26 27 28 29 30 31 32 33 34 35 36 37 38 39 40 41 42 43 44 45 46 47 48 49 50
000
ASCA44 KEWX 010520
RWRMX

LATIN AMERICA AND CARIBBEAN REGIONAL WEATHER ROUNDUP
NATIONAL WEATHER SERVICE AUSTIN/SAN ANTONIO TX
1100 PM CST SAT FEB 28 2015

NOTE: "FAIR" INDICATED FEW OR NO CLOUDS BELOW 12,000 FEET WITH NO
SIGNIFICANT WEATHER AND/OR OBSTRUCTIONS TO VISIBILITY.

BAJA CALIFORNIA

CITY           SKY/WX    TMP DP  RH WIND       PRES   REMARKS
LA PAZ         MOCLDY    64  52  63 S7        30.00
MEXICALI       PTCLDY    61  39  44 W9        29.87
S.J. DEL CABO  MOCLDY    66  55  68 SW3       29.98R
TIJUANA        MOCLDY    55  46  71 SE3       29.93S

NORTHWESTERN MEXICO

CITY           SKY/WX    TMP DP  RH WIND       PRES   REMARKS
CULIACAN       MOCLDY    66  61  82 CALM      30.00
DURANGO        MOCLDY    55  18  22 W7        30.25
HERMOSILLO     CLEAR     66  57  72 CALM      29.98
LOS MOCHIS       N/A    N/A N/A N/A MISG        N/A

NORTHEASTERN MEXICO

CITY           SKY/WX    TMP DP  RH WIND       PRES   REMARKS
CHIHUAHUA      CLEAR     59  21  23 SW12      30.05
MONTERREY      CLOUDY    46  45  93 SE5       30.18R WCI  44
TORREON        CLEAR     66  41  39 CALM      30.06R
CD. VICTORIA   MOCLDY    52  46  82 NW7       30.17

WESTERN MEXICO

CITY           SKY/WX    TMP DP  RH WIND       PRES   REMARKS
AGUASCALIENTES CLEAR     59  21  23 S6        30.27
GUADALAJARA    CLEAR     57  28  33 CALM      30.21
MAZATLAN       CLEAR     57  54  88 N9        29.99R
P. VALLARTA    CLEAR     70  66  88 CALM      29.99S
ZACATECAS      CLEAR     54  14  20 SW12      30.28S

CENTRAL MEXICO

CITY           SKY/WX    TMP DP  RH WIND       PRES   REMARKS
MEXICO CITY    CLEAR     64  36  34 VRB3      30.34R
MORELIA        CLEAR     55  36  47 SW6       30.25
PUEBLA         PTCLDY    57  39  51 S7        30.36R
QUERETARO      CLEAR     55  39  54 E7        30.32R
S. LUIS POTOSI CLEAR     55  41  58 CALM      30.27R
TAMPICO        CLOUDY    64  61  88 N9        30.13S
TOLUCA         CLEAR     48  34  57 CALM      30.42R

SOUTHERN MEXICO

CITY           SKY/WX    TMP DP  RH WIND       PRES   REMARKS
ACAPULCO       CLEAR     75  72  88 NE2       29.96R
VERACRUZ       CLOUDY    66  63  88 N7        30.12S

YUCATAN PENINSULA

CITY           SKY/WX    TMP DP  RH WIND       PRES   REMARKS
CAMPECHE       CLEAR     75  73  94 CALM      30.07R
CANCUN         CLEAR     77  73  88 E6        30.16S
CHETUMAL       CLEAR     79  73  83 CALM      30.10S
COZUMEL        CLEAR     70  70 100 E6        30.15S
MERIDA         CLEAR     77  70  78 E12       30.13R
TAPACHULA      MOCLDY    81  75  83 CALM      29.98R
TUX. GUTIERREZ CLEAR     68  59  73 CALM      30.09R

CENTRAL AMERICA

CITY           SKY/WX    TMP DP  RH WIND       PRES   REMARKS
MANAGUA        PTCLDY    81  64  57 E12       29.94S

CARIBBEAN

CITY           SKY/WX    TMP DP  RH WIND       PRES   REMARKS
ARUBA          PTCLDY    79  72  78 E14       29.97S
CURACAO        PTCLDY    79  72  78 E14       30.00S
KINGSTON       PTCLDY    79  70  73 N10       30.06S
NASSAU         MOCLDY    73  68  83 NE9       30.27S
SAN JUAN       PTCLDY    75  72  88 E9        30.13F
SANTO DOMINGO  PTCLDY    72  70  94 NE7       30.12S
ST. MAARTEN    PTCLDY    77  66  69 E17       30.09S

$$



USA.gov is the U.S. government's official web portal to all federal, state and local government web resources and services.